When you browse on this site, cookies collect data to enhance your experience and personalize the content and advertising you see.
Visit our Privacy Policy to learn more. By continuing to use the site, you agree to this use of cookies and data.
  • In Hungary
  • List of Countries
  • For 7 days
  • Water Temperature
  • Weather Map
  • News
  • Weather Widgets
  • user-avatar
    Login

    Hourly Weather Chiquinquira

    Today, 8 December, Sunday

    Time Temperature Precipitation Wind Pressure Humidity
    00:00 +8°C° 0 mm 0 mps 556 mmHg 96%
    01:00 +9°C° 0 mm 1 mps 556 mmHg 96%
    02:00 +9°C° 0 mm 1 mps 556 mmHg 96%
    03:00 +9°C° 0 mm 1 mps 556 mmHg 96%
    04:00 +8°C° 0 mm 0 mps 556 mmHg 95%
    05:00 +8°C° 0 mm 0 mps 556 mmHg 94%
    06:00 +9°C° 0 mm 0 mps 557 mmHg 93%
    07:00 +10°C° 0 mm 0 mps 558 mmHg 91%
    08:00 +13°C° 0.1 mm 1 mps 559 mmHg 84%
    09:00 +15°C° 0.1 mm 1 mps 560 mmHg 76%
    10:00 +18°C° 0.1 mm 1 mps 561 mmHg 68%
    11:00 +18°C° 0.7 mm 1 mps 560 mmHg 74%
    12:00 +16°C° 0.7 mm 1 mps 559 mmHg 80%
    13:00 +16°C° 0.7 mm 1 mps 558 mmHg 86%
    14:00 +15°C° 1 mm 1 mps 557 mmHg 88%
    15:00 +15°C° 1 mm 1 mps 557 mmHg 91%
    16:00 +14°C° 1 mm 1 mps 556 mmHg 93%
    17:00 +13°C° 0.3 mm 1 mps 556 mmHg 95%
    18:00 +11°C° 0.3 mm 0 mps 556 mmHg 96%
    19:00 +10°C° 0.3 mm 0 mps 556 mmHg 98%
    20:00 +10°C° 0 mm 0 mps 556 mmHg 97%
    21:00 +10°C° 0 mm 1 mps 556 mmHg 97%
    22:00 +10°C° 0 mm 1 mps 556 mmHg 96%
    23:00 +10°C° 0 mm 1 mps 556 mmHg 96%

    Tomorrow, 9 December, Monday

    Time Temperature Precipitation Wind Pressure Humidity
    00:00 +10°C° 0 mm 1 mps 556 mmHg 96%
    01:00 +9°C° 0 mm 1 mps 555 mmHg 95%
    02:00 +9°C° 0 mm 1 mps 555 mmHg 95%
    03:00 +9°C° 0 mm 1 mps 555 mmHg 95%
    04:00 +9°C° 0 mm 1 mps 555 mmHg 94%
    05:00 +10°C° 0 mm 1 mps 555 mmHg 93%
    06:00 +10°C° 0 mm 1 mps 556 mmHg 92%
    07:00 +11°C° 0 mm 1 mps 557 mmHg 91%
    08:00 +13°C° 0 mm 1 mps 558 mmHg 82%
    09:00 +16°C° 0 mm 1 mps 559 mmHg 74%
    10:00 +19°C° 0 mm 1 mps 561 mmHg 66%
    11:00 +19°C° 0.5 mm 1 mps 560 mmHg 68%
    12:00 +19°C° 0.5 mm 1 mps 559 mmHg 71%
    13:00 +19°C° 0.5 mm 1 mps 558 mmHg 74%
    14:00 +18°C° 1 mm 1 mps 557 mmHg 80%
    15:00 +16°C° 1 mm 1 mps 557 mmHg 87%
    16:00 +14°C° 1 mm 0 mps 556 mmHg 93%
    17:00 +13°C° 1.1 mm 0 mps 556 mmHg 94%
    18:00 +13°C° 1.1 mm 1 mps 556 mmHg 96%
    19:00 +12°C° 1.1 mm 1 mps 556 mmHg 97%
    20:00 +12°C° 0.7 mm 1 mps 556 mmHg 97%
    21:00 +11°C° 0.7 mm 1 mps 556 mmHg 97%
    22:00 +11°C° 0.7 mm 1 mps 556 mmHg 97%
    23:00 +10°C° 0.1 mm 1 mps 556 mmHg 97%

    Day after tomorrow, 10 December, Tuesday

    Time Temperature Precipitation Wind Pressure Humidity
    00:00 +10°C° 0.1 mm 1 mps 555 mmHg 96%
    01:00 +10°C° 0.1 mm 1 mps 555 mmHg 96%
    02:00 +9°C° 0 mm 1 mps 555 mmHg 96%
    03:00 +9°C° 0 mm 1 mps 554 mmHg 95%
    04:00 +9°C° 0 mm 1 mps 554 mmHg 94%
    05:00 +9°C° 0 mm 1 mps 555 mmHg 93%
    06:00 +10°C° 0 mm 1 mps 556 mmHg 92%
    07:00 +11°C° 0 mm 1 mps 557 mmHg 91%
    08:00 +13°C° 0 mm 1 mps 558 mmHg 81%
    09:00 +16°C° 0 mm 1 mps 559 mmHg 71%
    10:00 +20°C° 0 mm 1 mps 561 mmHg 61%
    11:00 +19°C° 0.5 mm 1 mps 560 mmHg 64%
    12:00 +19°C° 0.5 mm 1 mps 559 mmHg 67%
    13:00 +19°C° 0.5 mm 1 mps 559 mmHg 69%
    14:00 +18°C° 0.8 mm 1 mps 558 mmHg 76%
    15:00 +16°C° 0.8 mm 1 mps 557 mmHg 84%
    16:00 +15°C° 0.8 mm 1 mps 556 mmHg 91%
    17:00 +14°C° 0.5 mm 1 mps 556 mmHg 93%
    18:00 +12°C° 0.5 mm 0 mps 556 mmHg 96%
    19:00 +11°C° 0.5 mm 0 mps 556 mmHg 98%
    20:00 +11°C° 0.6 mm 0 mps 556 mmHg 97%
    21:00 +10°C° 0.6 mm 0 mps 556 mmHg 97%
    22:00 +11°C° 0.6 mm 1 mps 557 mmHg 96%
    23:00 +11°C° 0.2 mm 1 mps 556 mmHg 96%

    11 December, Wednesday

    Time Temperature Precipitation Wind Pressure Humidity
    00:00 +11°C° 0.2 mm 1 mps 556 mmHg 96%
    01:00 +10°C° 0.2 mm 1 mps 556 mmHg 96%
    02:00 +11°C° 0.1 mm 1 mps 556 mmHg 96%
    03:00 +11°C° 0.1 mm 1 mps 556 mmHg 96%
    04:00 +11°C° 0.1 mm 1 mps 555 mmHg 95%
    05:00 +10°C° 0.1 mm 0 mps 556 mmHg 95%
    06:00 +11°C° 0.1 mm 0 mps 557 mmHg 94%
    07:00 +11°C° 0.1 mm 0 mps 557 mmHg 94%
    08:00 +12°C° 0.3 mm 0 mps 558 mmHg 90%
    09:00 +15°C° 0.3 mm 1 mps 559 mmHg 87%
    10:00 +16°C° 0.3 mm 1 mps 559 mmHg 84%
    11:00 +16°C° 1.1 mm 1 mps 559 mmHg 86%
    12:00 +16°C° 1.1 mm 1 mps 558 mmHg 89%
    13:00 +15°C° 1.1 mm 1 mps 557 mmHg 91%
    14:00 +15°C° 1.1 mm 1 mps 557 mmHg 92%
    15:00 +15°C° 1.1 mm 1 mps 556 mmHg 94%
    16:00 +14°C° 1.1 mm 1 mps 556 mmHg 95%
    17:00 +13°C° 0.3 mm 1 mps 556 mmHg 96%
    18:00 +12°C° 0.3 mm 1 mps 555 mmHg 97%
    19:00 +10°C° 0.3 mm 0 mps 555 mmHg 98%
    20:00 +10°C° 0.3 mm 0 mps 555 mmHg 97%
    21:00 +11°C° 0.3 mm 1 mps 556 mmHg 97%
    22:00 +10°C° 0.3 mm 1 mps 556 mmHg 96%
    23:00 +10°C° 0 mm 1 mps 555 mmHg 96%

    12 December, Thursday

    Time Temperature Precipitation Wind Pressure Humidity
    00:00 +9°C° 0 mm 1 mps 555 mmHg 96%
    01:00 +8°C° 0 mm 0 mps 555 mmHg 96%
    02:00 +8°C° 0 mm 0 mps 555 mmHg 96%
    03:00 +8°C° 0 mm 0 mps 554 mmHg 95%
    04:00 +8°C° 0 mm 0 mps 554 mmHg 95%
    05:00 +8°C° 0 mm 0 mps 555 mmHg 95%
    06:00 +9°C° 0 mm 0 mps 556 mmHg 95%
    07:00 +9°C° 0 mm 0 mps 556 mmHg 94%
    08:00 +11°C° 0 mm 0 mps 557 mmHg 87%
    09:00 +14°C° 0 mm 1 mps 558 mmHg 79%
    10:00 +16°C° 0 mm 1 mps 559 mmHg 71%
    11:00 +18°C° 0.1 mm 1 mps 559 mmHg 70%
    12:00 +18°C° 0.1 mm 1 mps 558 mmHg 69%
    13:00 +17°C° 0.1 mm 2 mps 558 mmHg 67%
    14:00 +17°C° 0.2 mm 2 mps 557 mmHg 72%
    15:00 +16°C° 0.2 mm 1 mps 556 mmHg 76%
    16:00 +15°C° 0.2 mm 1 mps 556 mmHg 81%
    17:00 +14°C° 0.1 mm 1 mps 555 mmHg 86%
    18:00 +12°C° 0.1 mm 1 mps 555 mmHg 92%
    19:00 +10°C° 0.1 mm 1 mps 554 mmHg 98%
    20:00 +10°C° 0 mm 1 mps 555 mmHg 97%
    21:00 +9°C° 0 mm 1 mps 555 mmHg 96%
    22:00 +9°C° 0 mm 1 mps 555 mmHg 96%
    23:00 +9°C° 0 mm 1 mps 555 mmHg 94%

    13 December, Friday

    Time Temperature Precipitation Wind Pressure Humidity
    00:00 +8°C° 0 mm 1 mps 554 mmHg 92%
    01:00 +8°C° 0 mm 1 mps 554 mmHg 91%
    02:00 +8°C° 0 mm 1 mps 554 mmHg 89%
    03:00 +7°C° 0 mm 1 mps 553 mmHg 88%
    04:00 +7°C° 0 mm 1 mps 553 mmHg 87%
    05:00 +8°C° 0 mm 1 mps 554 mmHg 85%
    06:00 +9°C° 0 mm 1 mps 555 mmHg 83%
    07:00 +9°C° 0 mm 1 mps 555 mmHg 82%
    08:00 +12°C° 0 mm 1 mps 557 mmHg 73%
    09:00 +15°C° 0 mm 1 mps 558 mmHg 64%
    10:00 +18°C° 0 mm 1 mps 560 mmHg 55%
    11:00 +19°C° 0 mm 1 mps 559 mmHg 56%
    12:00 +19°C° 0 mm 1 mps 559 mmHg 57%
    13:00 +18°C° 0 mm 2 mps 558 mmHg 57%
    14:00 +17°C° 0.3 mm 2 mps 557 mmHg 66%
    15:00 +16°C° 0.3 mm 1 mps 557 mmHg 74%
    16:00 +15°C° 0.3 mm 1 mps 556 mmHg 82%
    17:00 +14°C° 0.2 mm 1 mps 555 mmHg 87%
    18:00 +12°C° 0.2 mm 1 mps 555 mmHg 92%
    19:00 +10°C° 0.2 mm 0 mps 555 mmHg 97%
    20:00 +9°C° 0 mm 0 mps 555 mmHg 96%
    21:00 +10°C° 0 mm 1 mps 555 mmHg 95%
    22:00 +9°C° 0 mm 1 mps 555 mmHg 94%
    23:00 +9°C° 0 mm 1 mps 555 mmHg 93%
    Show more